Location: Gidding
(52.4333°N, 0.3500°W)
Time: 05:43:12
(UTC+00:00)

SL-19 R/B - Pass Details

Date: 11 December 2025
Orbit: 796 x 1008 km, 99.5° (Epoch: 19 April)

Event Time Altitude Azimuth Distance (km) Brightness Sun altitude
Rises 17:40:19 0° 141° (SE) 3,359 7.1 -16.0°
Reaches altitude 10° 17:42:41 10° 135° (SE) 2,453 6.3 -16.3°
Maximum altitude 17:47:52 48° 63° (ENE) 1,132 4.4 -17.1°
Drops below altitude 10° 17:53:21 10° 351° (N) 2,598 6.7 -17.9°
Sets 17:55:54 0° 346° (NNW) 3,577 7.5 -18.2°
